This demonstration page uses our WeatherBlox Daily Observations layout. Learn more.

Left ArrowRight Arrow

Hourly Observations for August 28, 2021

Temp ( °F °C ) Dew Point ( °F °C ) Humidity (%) Winds ( mph kmh ) Pressure ( in mb ) Visibility ( mi km ) Precip ( " mm )
12:59 am 00:59 Clear 81 27.2 72 22.2 74 74 SSW 7 11 30.14 1021 8 13 0.00 0.00
1:59 am 01:59 Clear 81 27.2 72 22.2 74 74 SSW 5 7 30.14 1021 8 13 0.00 0.00
2:59 am 02:59 Clear 80 26.7 72 22.2 76 76 SSW 8 13 30.13 1020 8 13 0.00 0.00
3:59 am 03:59 Partly Cloudy 79 26.1 72 22.2 79 79 SSW 6 9 30.12 1020 8 13 0.00 0.00
4:59 am 04:59 Partly Cloudy 79 26.1 72 22.2 79 79 WSW 6 9 30.12 1020 8 13 0.00 0.00
5:59 am 05:59 Mostly Clear 78 25.6 72 22.2 82 82 WSW 5 7 30.12 1020 8 13 0.00 0.00
6:59 am 06:59 Partly Cloudy 78 25.6 73 22.8 85 85 WSW 6 9 30.14 1021 7 11 0.00 0.00
7:59 am 07:59 Partly Cloudy 80 26.7 73 22.8 79 79 WSW 6 9 30.16 1021 7 11 0.00 0.00
8:59 am 08:59 Mostly Sunny 82 27.8 72 22.2 72 72 WSW 7 11 30.15 1021 7 11 0.00 0.00
9:59 am 09:59 Sunny 85 29.4 72 22.2 65 65 W 12 19 30.16 1022 7 11 0.00 0.00
10:59 am 10:59 Mostly Sunny 86 30 73 22.8 65 65 W 9 15 30.17 1022 7 11 0.00 0.00
11:59 am 11:59 Partly Cloudy 88 31.1 74 23.3 63 63 W 7 11 30.17 1022 7 11 0.00 0.00
12:59 pm 12:59 Partly Cloudy 91 32.8 74 23.3 57 57 N 8 13 30.16 1021 7 11 0.00 0.00
1:59 pm 13:59 Partly Cloudy 91 32.8 75 23.9 59 59 NNE 7 11 30.16 1021 7 11 0.00 0.00
2:59 pm 14:59 Partly Cloudy 91 32.8 74 23.3 57 57 NNE 9 15 30.14 1021 7 11 0.00 0.00
3:59 pm 15:59 Sunny 90 32.2 74 23.3 59 59 NE 7 11 30.13 1020 7 11 0.00 0.00
4:59 pm 16:59 Partly Cloudy 90 32.2 75 23.9 62 62 NNE 8 13 30.13 1020 8 13 0.00 0.00
5:59 pm 17:59 Partly Cloudy 88 31.1 76 24.4 68 68 NE 8 13 30.12 1020 8 13 0.00 0.00
6:59 pm 18:59 Partly Cloudy 86 30 76 24.4 72 72 NE 10 17 30.13 1020 8 13 0.00 0.00
7:59 pm 19:59 Mostly Cloudy 85 29.4 74 23.3 70 70 ENE 5 7 30.14 1021 8 13 0.00 0.00
8:59 pm 20:59 Mostly Cloudy 85 29.4 74 23.3 70 70 NE 8 13 30.14 1021 9 14 0.00 0.00
9:59 pm 21:59 Partly Cloudy 84 28.9 73 22.8 70 70 NNE 6 9 30.15 1021 9 14 0.00 0.00
10:59 pm 22:59 Partly Cloudy 84 28.9 76 24.4 77 77 NE 5 7 30.16 1022 9 14 0.00 0.00
11:59 pm 23:59 Mostly Clear 83 28.3 76 24.4 79 79 ENE 8 13 30.17 1022 9 14 0.00 0.00

Powered by AerisWeather